Le nostre stazioni meteo in Italia

Pubblicità
Il mio iltempo24.it
Firenze/Peretola, Italia (16170): Temperatura & dewpoint: 19.06.2019 20:00:00 - 25.06.2019 20:00:00 (CEST)Firenze/Peretola, Italia (16170): velocità del vento: 19.06.2019 20:00:00 - 25.06.2019 20:00:00 (CEST)Firenze/Peretola, Italia (16170): direzione del vento: 19.06.2019 20:00:00 - 25.06.2019 20:00:00 (CEST)Firenze/Peretola, Italia (16170): reduced air pressure: 19.06.2019 20:00:00 - 25.06.2019 20:00:00 (CEST)Firenze/Peretola, Italia (16170): visibility: 19.06.2019 20:00:00 - 25.06.2019 20:00:00 (CEST)Firenze/Peretola, Italia (16170): precipitazioni: 19.06.2019 20:00:00 - 25.06.2019 20:00:00 (CEST)
Data & Tempo tt [°C] td [°C] ff [km/h] ff [kn] dd ppp [hPa] vv [km] rr [mm]
25.06.2019 20:00:00 31,6 18,1 18 10 NE 1020,1 10 -
25.06.2019 19:00:00 33,0 19,0 21 11 NE - 10 -
25.06.2019 18:00:00 34,0 19,0 26 14 NNE - 10 -
25.06.2019 17:00:00 34,6 18,2 16 9 NNE 1019,5 10 0,0
25.06.2019 16:00:00 34,0 17,0 24 13 NE - 10 -
25.06.2019 15:00:00 34,0 17,0 21 11 NNE - 10 -
25.06.2019 14:00:00 34,3 17,7 15 8 NNE 1020,3 10 -
25.06.2019 13:00:00 34,0 17,0 16 9 NE - 10 -
25.06.2019 12:00:00 33,0 18,0 13 7 NE - 10 -
25.06.2019 11:00:00 31,6 18,0 15 8 N 1020,7 10 0,0
25.06.2019 10:00:00 30,0 18,0 9 5 NE - 10 -
25.06.2019 09:00:00 29,0 17,0 5 3 - - 10 -
25.06.2019 08:00:00 25,5 16,7 2 1 - 1020,5 10 -
25.06.2019 07:00:00 21,0 17,0 2 1 - - 10 -
25.06.2019 06:00:00 19,0 15,0 4 2 - - 10 -
25.06.2019 05:00:00 19,1 15,0 5 3 N 1019,7 10 0,0
25.06.2019 04:00:00 23,0 15,0 8 4 SO - 10 -
25.06.2019 03:00:00 21,0 16,0 4 2 - - 10 -
25.06.2019 02:00:00 23,7 15,4 11 6 ONO 1020,0 10 -
25.06.2019 01:00:00 27,0 14,0 5 3 NNE - 10 -
25.06.2019 00:00:00 25,0 16,0 8 4 - - 10 -
24.06.2019 23:00:00 26,4 14,4 13 7 E 1019,4 10 0,0
24.06.2019 22:00:00 27,0 16,0 13 7 E - 10 -
24.06.2019 21:00:00 28,0 17,0 9 5 NE - 10 -
24.06.2019 20:00:00 30,5 16,7 15 8 NE 1018,0 10 -
24.06.2019 19:00:00 32,0 17,0 15 8 NE - 10 -
24.06.2019 18:00:00 33,0 17,0 15 8 NNE - 10 -
24.06.2019 17:00:00 33,2 16,9 16 9 NNE 1017,3 10 0,0
24.06.2019 16:00:00 34,0 18,0 11 6 NNE - 10 -
24.06.2019 15:00:00 34,0 16,0 16 9 NNE - 10 -
24.06.2019 14:00:00 33,1 15,7 13 7 NE 1017,3 10 -
24.06.2019 13:00:00 33,0 17,0 15 8 ENE - 10 -
24.06.2019 12:00:00 31,0 16,0 16 9 ENE - 10 -
24.06.2019 11:00:00 30,4 16,8 4 2 - 1017,8 10 0,0
24.06.2019 10:00:00 27,0 18,0 4 2 - - 10 -
24.06.2019 09:00:00 24,0 17,0 2 1 - - 10 -
24.06.2019 08:00:00 22,3 16,5 2 1 - 1018,3 10 -
24.06.2019 07:00:00 20,0 17,0 2 1 - - 10 -
24.06.2019 06:00:00 17,0 15,0 5 3 E - 10 -
24.06.2019 05:00:00 18,5 15,5 5 3 NE 1017,7 10 0,0
24.06.2019 04:00:00 18,0 15,0 5 3 NE - 10 -
24.06.2019 03:00:00 19,0 16,0 5 3 ENE - 10 -
24.06.2019 02:00:00 19,9 15,7 5 3 NE 1017,5 10 -
24.06.2019 01:00:00 20,0 16,0 4 2 - - 10 -
24.06.2019 00:00:00 22,0 15,0 5 3 E - 10 -
23.06.2019 23:00:00 23,3 16,1 5 3 S 1016,4 10 0,0
23.06.2019 22:00:00 26,0 16,0 9 5 SO - 10 -
23.06.2019 21:00:00 28,0 14,0 13 7 SO - 10 -
23.06.2019 20:00:00 28,5 14,5 9 5 OSO 1014,6 10 -
23.06.2019 19:00:00 30,0 16,0 15 8 OSO - 10 -
23.06.2019 18:00:00 31,0 17,0 15 8 O - 10 -
23.06.2019 17:00:00 30,4 18,2 15 8 SO 1014,3 10 0,0
23.06.2019 16:00:00 31,0 16,0 11 6 ONO - 10 -
23.06.2019 15:00:00 31,0 17,0 8 4 - - 10 -
23.06.2019 14:00:00 30,1 15,1 9 5 - 1014,8 10 -
23.06.2019 13:00:00 29,0 16,0 9 5 ONO - 10 -
23.06.2019 12:00:00 28,0 17,0 5 3 - - 10 -
23.06.2019 11:00:00 26,5 16,8 4 2 - 1014,5 10 0,0
23.06.2019 10:00:00 24,0 18,0 5 3 ONO - 10 -
23.06.2019 09:00:00 22,0 17,0 4 2 - - 10 -
23.06.2019 08:00:00 21,5 16,9 2 1 - 1014,7 10 -
23.06.2019 07:00:00 18,0 17,0 2 1 - - 10 -
23.06.2019 06:00:00 16,0 16,0 2 1 - - 10 -
23.06.2019 05:00:00 16,3 15,4 2 1 NE 1013,9 10 0,0
23.06.2019 04:00:00 17,0 17,0 2 1 - - 10 -
23.06.2019 03:00:00 18,0 17,0 2 1 - - 10 -
23.06.2019 02:00:00 18,2 16,9 4 2 - 1013,9 10 -
23.06.2019 01:00:00 19,0 17,0 4 2 - - 10 -
23.06.2019 00:00:00 19,0 17,0 4 2 - - 10 -
22.06.2019 23:00:00 20,3 17,7 4 2 N 1013,2 10 0,0
22.06.2019 22:00:00 22,0 17,0 9 5 SSO - 10 -
22.06.2019 21:00:00 23,0 18,0 8 4 S - 10 -
22.06.2019 20:00:00 23,1 19,3 9 5 NNO 1011,9 10 -
22.06.2019 19:00:00 25,0 20,0 9 5 ONO - 10 -
22.06.2019 18:00:00 29,0 18,0 15 8 S - 10 -
22.06.2019 17:00:00 29,3 18,4 16 9 S 1012,0 10 0,0
22.06.2019 16:00:00 30,0 18,0 9 5 SSE - 10 -
22.06.2019 15:00:00 30,0 17,0 9 5 SSE - 10 -
22.06.2019 14:00:00 30,7 16,9 11 6 ESE 1013,3 10 -
22.06.2019 13:00:00 28,0 16,0 5 3 ESE - 10 -
22.06.2019 12:00:00 29,0 16,0 13 7 SE - 10 -
22.06.2019 11:00:00 28,2 14,9 9 5 E 1013,9 10 0,0
22.06.2019 10:00:00 25,0 17,0 9 5 E - 10 -
22.06.2019 09:00:00 22,0 18,0 11 6 O - 10 -
22.06.2019 08:00:00 22,5 17,8 5 3 NNE 1014,2 10 -
22.06.2019 07:00:00 20,0 17,0 11 6 N - 10 -
22.06.2019 06:00:00 21,0 17,0 4 2 - - 10 -
22.06.2019 05:00:00 19,8 16,7 11 6 NE 1013,6 10 0,0
22.06.2019 04:00:00 22,0 16,0 8 4 SSO - 10 -
22.06.2019 03:00:00 21,0 16,0 8 4 ENE - 10 -
22.06.2019 02:00:00 21,4 15,7 4 2 - 1015,3 10 -
22.06.2019 01:00:00 22,0 16,0 11 6 ENE - 10 -
22.06.2019 00:00:00 23,0 17,0 2 1 - - 10 -
21.06.2019 23:00:00 24,8 16,6 8 4 SSO 1015,0 10 0,0
21.06.2019 22:00:00 27,0 16,0 8 4 SSO - 10 -
21.06.2019 21:00:00 28,0 17,0 8 4 O - 10 -
21.06.2019 20:00:00 28,7 16,9 9 5 ONO 1012,9 10 -
21.06.2019 19:00:00 30,0 17,0 15 8 O - 10 -
21.06.2019 18:00:00 31,0 16,0 13 7 O - 10 -
21.06.2019 17:00:00 32,2 15,7 9 5 SSO 1013,7 10 0,0
21.06.2019 16:00:00 33,0 15,0 11 6 - - 10 -
21.06.2019 15:00:00 33,0 14,0 5 3 - - 10 -
21.06.2019 14:00:00 31,6 14,2 8 4 - 1014,8 10 -
21.06.2019 13:00:00 30,0 16,0 5 3 - - 10 -
21.06.2019 12:00:00 29,0 15,0 8 4 SE - 10 -
21.06.2019 11:00:00 27,6 14,8 4 2 - 1015,6 10 0,0
21.06.2019 10:00:00 25,0 17,0 4 2 - - 10 -
21.06.2019 09:00:00 23,0 16,0 5 3 N - 10 -
21.06.2019 08:00:00 21,8 15,4 2 1 - 1015,9 10 -
21.06.2019 07:00:00 18,0 15,0 5 3 SO - 10 -
21.06.2019 06:00:00 16,0 14,0 5 3 ENE - 10 -
21.06.2019 05:00:00 16,5 13,7 2 1 - 1015,3 10 0,0
21.06.2019 04:00:00 19,0 14,0 5 3 S - 10 -
21.06.2019 03:00:00 19,0 14,0 5 3 E - 10 -
21.06.2019 02:00:00 18,6 13,7 9 5 E 1015,1 10 -
21.06.2019 01:00:00 20,0 14,0 8 4 E - 10 -
21.06.2019 00:00:00 23,0 14,0 2 1 - - 10 -
20.06.2019 23:00:00 22,8 14,1 5 3 ONO 1014,3 10 0,0
20.06.2019 22:00:00 26,0 13,0 11 6 OSO - 10 -
20.06.2019 21:00:00 26,0 14,0 9 5 O - 10 -
20.06.2019 20:00:00 27,7 14,3 11 6 ONO 1012,4 10 -
20.06.2019 19:00:00 30,0 13,0 16 9 OSO - 10 -
20.06.2019 18:00:00 31,0 15,0 16 9 O - 10 -
20.06.2019 17:00:00 31,5 13,1 9 5 O 1012,2 10 0,0
20.06.2019 16:00:00 31,0 11,0 11 6 O - 10 -
20.06.2019 15:00:00 31,0 9,0 8 4 NNO - 10 -
20.06.2019 14:00:00 29,4 10,1 5 3 - 1013,9 10 -
20.06.2019 13:00:00 29,0 11,0 8 4 - - 10 -
20.06.2019 12:00:00 27,0 12,0 4 2 - - 10 -
20.06.2019 11:00:00 25,7 12,6 4 2 - 1014,4 10 0,0
20.06.2019 10:00:00 24,0 13,0 2 1 - - 10 -
20.06.2019 09:00:00 21,0 14,0 4 2 - - 10 -
20.06.2019 08:00:00 19,6 13,5 2 1 - 1014,7 10 -
20.06.2019 07:00:00 17,0 13,0 2 1 - - 10 -
20.06.2019 06:00:00 14,0 12,0 5 3 E - 10 -
20.06.2019 05:00:00 14,4 12,4 2 1 - 1014,4 10 0,0
20.06.2019 04:00:00 18,0 13,0 4 2 - - 10 -
20.06.2019 03:00:00 17,0 13,0 5 3 E - 10 -
20.06.2019 02:00:00 17,6 12,3 4 2 - 1014,4 10 -
20.06.2019 01:00:00 18,0 13,0 9 5 ENE - 10 -
20.06.2019 00:00:00 23,0 12,0 5 3 SSO - 10 -
19.06.2019 23:00:00 23,1 11,9 4 2 - 1014,0 10 0,0
19.06.2019 22:00:00 25,0 12,0 13 7 SO - 10 -
19.06.2019 21:00:00 27,0 12,0 13 7 SSO - 10 -
19.06.2019 20:00:00 28,5 10,1 16 9 OSO 1012,9 10 -

tt = Temperatura
td = dewpoint
ff = velocità del vento
dd = direzione del vento
ppp = reduced air pressure
vv = visibility
rr = precipitazioni

Stazioni seguenti

WeatherPro
AMSI
MeteoEarth